Location: Home
(42.5358°N, 72.7383°W)
Time: 06:50:45
(UTC-05:00)

Explorer 11/Cluster Stage 4 - Pass Details

Date: 01 December 2021
Orbit: 467 x 1255 km, 28.8° (Epoch: 25 January)

Event Time Altitude Azimuth Distance (km) Brightness Sun altitude
Rises 02:13:25 0° 214° (SW) 3,660 - -52.0°
Reaches altitude 10° 02:16:54 10° 196° (SSW) 2,858 - -51.4°
Maximum altitude 02:21:24 18° 157° (SSE) 2,479 - -50.6°
Exits shadow 02:25:43 11° 122° (ESE) 3,025 9.8 -49.9°
Drops below altitude 10° 02:26:15 10° 119° (ESE) 3,139 9.9 -49.8°
Sets 02:30:20 0° 102° (ESE) 4,170 10.8 -49.0°
